Voltar ao catálogo

COSMOS 2496

AtivoMilitarPO
NORAD 39761·PAYLOAD·🇷🇺 Russia

Lançado May 23, 2014 de Plesetsk Cosmodrome

Loading…

Próximas Passagens (próximas 24 horas)

TLE

AtualizadoSource: Space-Track

Época: Sep 14, 2026, 14:47 UTC

1 39761U 14028A   26257.61652382 -.00000142  00000-0 -10975-2 0  9999
2 39761  82.4435  52.6943 0019286 243.6285 116.2815 12.42880586558623

Acompanhe COSMOS 2496 em tempo real com AllMySat

Download on the App Store